Regional Weather Roundup
Issued by NWS

Home | Current Version | Previous Version | Text Only | Print | Product List | Glossary Off
Versions: 1 2 3 4 5 6 7 8 9 10 11 12 13 14 15 16 17 18 19 20 21 22 23 24 25 26 27 28 29 30 31 32 33 34 35 36 37 38 39 40 41 42 43 44 45 46 47 48 49 50

000
ASUS43 KTOP 260408
RWRKS

WEATHER ROUNDUP FOR KANSAS
NATIONAL WEATHER SERVICE GOODLAND KS
1100 PM CDT TUE APR 25 2017

NOTE:  "FAIR" INDICATES FEW OR NO CLOUDS BELOW 12,000 FEET WITH NO
SIGNIFICANT WEATHER AND/OR OBSTRUCTIONS TO VISIBILITY.

KSZ001>006-013>018-027>032-041>047-260500-
NORTHWEST KANSAS

CITY           SKY/WX    TMP DP  RH WIND       PRES   REMARKS
GOODLAND       CLOUDY    41  37  86 N18       29.75R
HAYS           CLOUDY    44  38  79 N21       29.67R
HILL CITY      CLOUDY    42  37  82 N16G24    29.72R
RUSSELL        CLOUDY    43  37  79 N20       29.66R
$$

KSZ061>065-074>080-084>089-260500-
SOUTHWEST KANSAS

CITY           SKY/WX    TMP DP  RH WIND       PRES   REMARKS
DODGE CITY     CLOUDY    47  44  90 N23       29.61R
ELKHART          N/A     47  43  87 N8          N/A
GARDEN CITY    PTCLDY    47  41  80 NE22G31   29.64R
GREAT BEND     LGT RAIN  44  41  89 N22       29.64R
PRATT          CLOUDY    45  41  88 N18G24    29.59S
$$

KSZ066>073-081>083-090>101-260500-
SOUTHEAST KANSAS

CITY           SKY/WX    TMP DP  RH WIND       PRES   REMARKS
CHANUTE        CLOUDY    60  55  83 NW14      29.46R
COFFEYVILLE    TSTM      63  62  97 MISG      29.47R FOG
HUTCHINSON     LGT RAIN  46  42  86 N14       29.59R
MEDICINE LODGE   N/A     48  44  86 N15       29.53R
NEWTON         LGT RAIN  45  42  89 N23G30    29.54F
PARSONS        CLOUDY    63  61  93 NW9       29.47R
WICHITA INTL   CLOUDY    50  45  83 N17       29.52F
WICHITA JABRA  MOCLDY    48  44  86 N17G26    29.53F
WICHITA MCCONL CLOUDY    49  43  79 N16G24    29.52F
WINFIELD       MOCLDY    54  47  77 N17G25    29.51S
$$

KSZ007>012-019>026-033>040-048>060-102>105-260500-
NORTHEAST KANSAS

CITY           SKY/WX    TMP DP  RH WIND       PRES   REMARKS
CONCORDIA      CLOUDY    43  37  79 N16G26    29.65R
EMPORIA        CLOUDY    50  46  86 N15G24    29.53F
LAWRENCE       CLOUDY    52  48  86 NW17      29.54R
MANHATTAN      CLOUDY    47  42  83 N7        29.60R
MARYSVILLE     CLOUDY    43  41  93 N18       29.60F
OLATHE IND     TSTM      53  52  96 N13       29.51S
OLATHE EXE     LGT RAIN  54  54 100 N12       29.49S
SALINA         CLOUDY    47  40  76 N18       29.64R
TOPEKA BILLARD CLOUDY    50  46  86 N13G21    29.57R
TOPEKA FORBES  CLOUDY    51  45  79 N16G24    29.55R
$$




USA.gov is the U.S. government's official web portal to all federal, state and local government web resources and services.